Regional Weather Roundup
Issued by NWS

Home | Current Version | Previous Version | Text Only | Print | Product List | Glossary On
Versions: 1 2 3 4 5 6 7 8 9 10 11 12 13 14 15 16 17 18 19 20 21 22 23 24 25 26 27 28 29 30 31 32 33 34 35 36 37 38 39 40 41 42 43 44 45 46 47 48 49 50
000
ASUS43 KDTX 280010
RWRMI
MICHIGAN HOURLY REGIONAL WEATHER ROUNDUP
NATIONAL WEATHER SERVICE DETROIT/PONTIAC MI
800 PM EDT THU AUG 27 2015

NOTE: "FAIR" INDICATES FEW OR NO CLOUDS BELOW 12,000 FEET WITH NO
SIGNIFICANT WEATHER AND/OR OBSTRUCTION TO VISIBILITY.

MIZ047>049-052>055-059>063-066>070-074>076-081>083-280100-
SOUTHEAST LOWER MICHIGAN

CITY           SKY/WX    TMP DP  RH WIND       PRES   REMARKS
ADRIAN         CLEAR     64  55  72 E3        30.17F
6HR MIN TEMP:  64; 6HR MAX TEMP:  68;

ALMA           CLEAR     64  57  77 S3        30.15S
ANN ARBOR      CLOUDY    64  54  69 NE5       30.16F
BAD AXE        CLEAR     61  55  79 S3        30.16F
DETROIT CITY   CLOUDY    64  53  67 E3        30.17F
6HR MIN TEMP:  64; 6HR MAX TEMP:  67;

DETROIT        MOCLDY    66  53  63 N6        30.17F
6HR MIN TEMP:  66; 6HR MAX TEMP:  69;

FLINT          CLEAR     64  54  69 S3        30.17F
6HR MIN TEMP:  64; 6HR MAX TEMP:  67;

GROSSE ILE     CLEAR     64  55  72 E6        30.15F
HILLSDALE      PTCLDY    64  57  79 NE3       30.17F
6HR MIN TEMP:  64; 6HR MAX TEMP:  68;

HOWELL         PTCLDY    62  52  71 SE5       30.17F
6HR MIN TEMP:  62; 6HR MAX TEMP:  65;


CITY           SKY/WX    TMP DP  RH WIND       PRES   REMARKS
JACKSON        CLEAR     62  53  72 CALM      30.17F
6HR MIN TEMP:  62; 6HR MAX TEMP:  65;

LAMBERTVILLE   CLEAR     66  55  68 CALM      30.16F
6HR MIN TEMP:  66; 6HR MAX TEMP:  71;

LANSING        CLEAR     63  53  70 S6        30.16F
6HR MIN TEMP:  61; 6HR MAX TEMP:  68;

LAPEER         NOT AVBL
MASON          CLEAR     58  54  84 CALM      30.16F
MONROE         CLEAR     65  54  67 CALM      30.15F
6HR MIN TEMP:  65; 6HR MAX TEMP:  69;

MT. CLEMENS    CLOUDY    64  55  74 CALM      30.15F
6HR MIN TEMP:  64; 6HR MAX TEMP:  66;

PONTIAC        MOCLDY    62  52  69 CALM      30.17F
6HR MIN TEMP:  62; 6HR MAX TEMP:  64;

PORT HOPE        N/A     61  53  75 SE6       30.15F
6HR MIN TEMP:  61; 6HR MAX TEMP:  65;

PORT HURON     CLOUDY    61  57  88 CALM      30.18F
TRI CITIES     CLEAR     66  56  70 S7        30.16S
6HR MIN TEMP:  66; 6HR MAX TEMP:  69;

YPSILANTI      CLOUDY    67  55  65 N6        30.17F
6HR MIN TEMP:  67; 6HR MAX TEMP:  74;

$$
MIZ043>046-050>051-056>058-064>065-071>073-077>080-280100-
SOUTHWEST LOWER MICHIGAN

CITY           SKY/WX    TMP DP  RH WIND       PRES   REMARKS
BATTLE CREEK   PTCLDY    66  54  65 E6        30.16F
6HR MIN TEMP:  66; 6HR MAX TEMP:  70;

BENTON HARBOR  CLEAR     64  57  78 CALM      30.15R
6HR MIN TEMP:  64; 6HR MAX TEMP:  71;

BIG RAPIDS     CLEAR     66  58  75 CALM      30.14R
6HR MIN TEMP:  66; 6HR MAX TEMP:  73;

COLDWATER      PTCLDY    63  56  78 E5        30.16S
6HR MIN TEMP:  63; 6HR MAX TEMP:  68;

HOLLAND        CLEAR     65  57  75 W6        30.16S
6HR MIN TEMP:  65; 6HR MAX TEMP:  71;

GRAND RAPIDS   PTCLDY    65  57  75 S6        30.15F
6HR MIN TEMP:  65; 6HR MAX TEMP:  71;

KALAMAZOO      MOCLDY    66  55  67 E3        30.16S
6HR MIN TEMP:  66; 6HR MAX TEMP:  71;

MARSHALL       PTCLDY    64  54  71 CALM      30.16S
MUSKEGON       PTCLDY    65  56  72 W5        30.15S
6HR MIN TEMP:  65; 6HR MAX TEMP:  72;

$$
MIZ016>042-280100-
NORTHERN LOWER MICHIGAN

CITY           SKY/WX    TMP DP  RH WIND       PRES   REMARKS
ALPENA         CLEAR     59  53  80 SE5       30.14F
6HR MIN TEMP:  59; 6HR MAX TEMP:  66;

BEAVER ISLAND  CLEAR     62  58  87 SW6       30.12F
BELLAIRE       MOCLDY    67  58  74 NW5       30.13R
6HR MIN TEMP:  67; 6HR MAX TEMP:  73;

CADILLAC       MOCLDY    66  58  73 W5        30.14R
CHARLEVOIX     PTCLDY    65  60  83 W6        30.15F
6HR MIN TEMP:  65; 6HR MAX TEMP:  70;

FRANKFORT      CLEAR     65  60  83 CALM      30.13S
GAYLORD        PTCLDY    67  55  65 SW3       30.13S
6HR MIN TEMP:  65; 6HR MAX TEMP:  70;

GRAYLING       CLEAR     65  57  74 CALM      30.14S
6HR MIN TEMP:  65; 6HR MAX TEMP:  72;

HARBOR SPRINGS CLEAR     65  57  76 W5        30.13R
HOUGHTON LAKE  CLEAR     65  56  72 S6        30.14S
6HR MIN TEMP:  65; 6HR MAX TEMP:  71;

MANISTEE       CLEAR     66  55  68 S3        30.14S
OSCODA         CLEAR     60  53  77 SE5       30.14F
6HR MIN TEMP:  60; 6HR MAX TEMP:  66;

PELLSTON       CLEAR     66  54  65 W5        30.12S
6HR MIN TEMP:  66; 6HR MAX TEMP:  72;

TRAVERSE CITY  PTCLDY    70  56  61 SW5       30.11S
6HR MIN TEMP:  70; 6HR MAX TEMP:  76;

$$
MIZ007>008-015-280100-
EASTERN UPPER MICHIGAN

CITY           SKY/WX    TMP DP  RH WIND       PRES   REMARKS
KINROSS        CLEAR     63  55  77 S6        30.12S
6HR MIN TEMP:  61; 6HR MAX TEMP:  70;

MACKINAC ISLAN CLEAR     60  51  72 SE5       30.12S
6HR MIN TEMP:  60; 6HR MAX TEMP:  65;

NEWBERRY       CLEAR     61  56  85 S7        30.10F
6HR MIN TEMP:  61; 6HR MAX TEMP:  71;

S. S. MARIE    CLEAR     63  55  75 S5        30.10S
6HR MIN TEMP:  63; 6HR MAX TEMP:  68;

$$
MIZ004>006-011>014-085-280100-
CENTRAL UPPER MICHIGAN

CITY           SKY/WX    TMP DP  RH WIND       PRES   REMARKS
MANISTIQUE     PTCLDY    62  59  90 S7        30.09F
6HR MIN TEMP:  62; 6HR MAX TEMP:  66;

ESCANABA       CLEAR     64  59  82 S6        30.08S
6HR MIN TEMP:  63; 6HR MAX TEMP:  66;

MENOMINEE      CLEAR     66  55  68 S7        30.08S
6HR MIN TEMP:  66; 6HR MAX TEMP:  72;

SAWYER-GWINN   CLEAR     70  54  56 S9        30.06F
$$
MIZ001>003-009>011-084-280100-
WESTERN UPPER MICHIGAN

CITY           SKY/WX    TMP DP  RH WIND       PRES   REMARKS
IRON MOUNTAIN  CLEAR     68  56  65 S7        30.06S
6HR MIN TEMP:  68; 6HR MAX TEMP:  74;

HOUGHTON       CLEAR     61  52  72 E5        30.03F
6HR MIN TEMP:  61; 6HR MAX TEMP:  70;

COPPER HARBOR    N/A     62  52  69 VRB6      30.03F
6HR MIN TEMP:  62; 6HR MAX TEMP:  69;

IRONWOOD       PTCLDY    70  57  64 SW7       30.02S
6HR MIN TEMP:  70; 6HR MAX TEMP:  75;

$$

ABBREVIATIONS USED IN REMARKS
   TC - TEMPERATURE IN CELSIUS
  WCI - WIND CHILL INDEX
   HX - HEAT INDEX
  VSB - VISIBILITY



USA.gov is the U.S. government's official web portal to all federal, state and local government web resources and services.